Regional Weather Roundup
Issued by NWS

Home | Current Version | Previous Version | Graphics & Text | Print | Product List | Glossary On
Versions: 1 2 3 4 5 6 7 8 9 10 11 12 13 14 15 16 17 18 19 20 21 22 23 24 25 26 27 28 29 30 31 32 33 34 35 36 37 38 39 40 41 42 43 44 45 46 47 48 49 50
000
ASUS45 KPSR 281100
RWRAZ

ARIZONA HOURLY REGIONAL WEATHER ROUNDUP
NATIONAL WEATHER SERVICE PHOENIX AZ
400 AM MST FRI AUG 28 2015

NOTE: FAIR INDICATES FEW OR NO CLOUDS BELOW 12,000 FEET WITH NO
SIGNIFICANT WEATHER AND/OR OBSTRUCTIONS TO VISIBILITY.

AZZ001>003-036-281200-
NORTHWEST ARIZONA

CITY           SKY/WX    TMP DP  RH WIND       PRES   REMARKS
KINGMAN        CLEAR     73  54  51 SE10      30.08S
$$

AZZ004>008-015-016-018-281200-
NORTH CENTRAL ARIZONA

CITY           SKY/WX    TMP DP  RH WIND       PRES   REMARKS
GRAND CANYON   CLEAR     48  43  82 CALM      30.33F
WILLIAMS       PTCLDY    52  50  93 S6        30.38F
PRESCOTT       CLEAR     60  57  89 S3        30.22R
FLAGSTAFF      NOT AVBL
PAYSON         PTCLDY    63  55  77 CALM      30.21S
PAGE           CLEAR     73  51  46 S3        30.15R
$$

AZZ009>014-017-281200-
NORTHEAST ARIZONA

CITY           SKY/WX    TMP DP  RH WIND       PRES   REMARKS
WINSLOW        NOT AVBL
SAINT JOHNS    CLEAR     59  54  83 S7        30.24S
WINDOW ROCK    CLEAR     51  47  86 CALM      30.31F
SHOW LOW       PTCLDY    54  46  76 S3        30.30S
$$

AZZ023-281200-
GREATER PHOENIX AREA

CITY           SKY/WX    TMP DP  RH WIND       PRES   REMARKS
PHOENIX        PTCLDY    83  66  56 E6        29.89R
LUKE AFB       CLEAR     80  73  78 NW5       29.89S
DEER VALLEY    CLEAR     83  60  45 N3        29.91F
SCOTTSDALE     CLEAR     83  61  47 CALM      29.93S
$$

AZZ027-028-281200-
SOUTHWEST MARICOPA COUNTY AND PINAL COUNTY

CITY           SKY/WX    TMP DP  RH WIND       PRES   REMARKS
CASA GRANDE    PTCLDY    79  59  50 CALM      29.92R
GILA BEND      FAIR      85  62  45 E5        29.86S
$$

AZZ503-504-507>509-281200-
SOUTHEAST ARIZONA

CITY           SKY/WX    TMP DP  RH WIND       PRES   REMARKS
TUCSON         MOCLDY    78  63  59 SE5       30.03R
DAVIS-MONTHAN  CLEAR     75  64  68 SE7       30.01R
NOGALES        MOCLDY    69  58  67 VRB5      30.10R
SIERRA VISTA   CLOUDY    67  61  80 SW7       30.16S
SAFFORD        PTCLDY    68  66  93 E3        30.04S
$$

AZZ020-021-025-026-031-281200-
SOUTHWEST ARIZONA

CITY           SKY/WX    TMP DP  RH WIND       PRES   REMARKS
YUMA           NOT AVBL
$$

CAZ031-033-041-043-047-048-061-281200-
SOUTHERN CALIFORNIA

CITY           SKY/WX    TMP DP  RH WIND       PRES   REMARKS
DOWNTOWN L.A.  CLEAR     74  65  73 CALM      29.87F
L.A. AIRPORT   CLEAR     73  68  84 CALM      29.88F
SAN DIEGO      CLEAR     75  68  78 CALM      29.89S
BURBANK        CLEAR     76  54  46 NW5       29.90F
ONTARIO        CLEAR     76  57  51 CALM      29.91F
RIVERSIDE      CLEAR     75  59  57 CALM      29.91F
PALM SPRINGS   CLEAR     92  56  29 CALM      29.85S
EL CENTRO NAS  CLEAR     84  55  36 N6        29.80S
IMPERIAL       CLEAR     89  66  46 N5        29.78S
BLYTHE         CLEAR     89  66  46 N6        29.82S
$$

NVZ020-UTZ003-281200-
SOUTHERN NEVADA-UTAH

CITY           SKY/WX    TMP DP  RH WIND       PRES   REMARKS
LAS VEGAS      NOT AVBL
SALT LAKE CITY CLEAR     68  47  46 SE7       30.17S
$$

NMZ009-TXZ055-281200-
NEW MEXICO-WEST TEXAS

CITY           SKY/WX    TMP DP  RH WIND       PRES   REMARKS
ALBUQUERQUE    PTCLDY    66  54  65 SE3       30.20S
EL PASO        MOCLDY    76  55  48 N3        30.05S
$$


........................KEY........................
SKY/WX - SKY CONDITION/WEATHER
TMP    - TEMPERATURE IN FAHRENHEIT
DP     - DEW POINT IN FAHRENHEIT
RH     - RELATIVE HUMIDITY IN PERCENT
WIND   - DIRECTION AND SPEED IN MILES PER HOUR (MPH)
VRB    - VARIABLE WIND DIRECTION
PRES   - MEAN SEA LEVEL PRESSURE IN INCHES OF MERCURY
         F - FALLING PRESSURE   R - RISING PRESSURE
         S - STEADY PRESSURE
VSB    - VISIBILITY IN MILES
HX     - HEAT INDEX IN FAHRENHEIT
WCI    - WIND CHILL INDEX IN FAHRENHEIT
TC     - TEMPERATURE IN CELSIUS WHICH IS ALSO KNOWN AS
         TEMPERATURE IN CENTIGRADE
AFB    - AIR FORCE BASE
         LUKE AFB IS LUKE AIR FORCE BASE
         DAVIS-MONTHAN IS DAVIS-MONTHAN AIR FORCE BASE
NAS    - NAVAL AIR STATION
         EL CENTRO NAS IS EL CENTRO NAVAL AIR STATION
N/A    - NOT AVAILABLE




USA.gov is the U.S. government's official web portal to all federal, state and local government web resources and services.